Location: Helstorf
(52.5868°N, 9.5862°E)
Time: 15:07:07
(UTC+00:00)

USA 245 - Pass Details

Date: 15 May 2026
Orbit: 264 x 994 km, 97.9° (Epoch: 15 October)

Event Time Altitude Azimuth Distance (km) Brightness Sun altitude
Exits shadow 20:25:40 - 163° (SSE) 2,686 6.2 -9.2°
Reaches altitude 10° 20:25:58 10° 163° (SSE) 2,573 6.1 -9.3°
Maximum altitude 20:31:51 89° 74° (ENE) 874 4.3 -9.8°
Drops below altitude 10° 20:37:17 10° 346° (NNW) 2,387 7.7 -10.4°
Sets 20:39:30 0° 346° (NNW) 3,244 8.6 -10.6°
